Location: Weymouth Pines Observatory
(42.9326°N, 81.3883°W)
Time: 11:58:47
(UTC-05:00)

Daily predictions for brighter satellites

Satellite Brightness Start Highest point End
(mag) Time Altitude Azimuth Time Altitude Azimuth Time Altitude Azimuth
SPOT 3 Rocket 3.5 17:43:23 10° SSE 17:48:29 69° ENE 17:53:38 10° N
BREEZE-M DEB (TANK) 3.8 17:45:47 10° WNW 17:50:12 56° SW 17:55:27 10° SE
USA 116 3.1 17:49:00 10° NNE 17:52:13 70° ESE 17:55:18 10° S
Cosmos 2228 Rocket 3.1 17:47:57 10° N 17:52:21 63° E 17:56:44 10° SSE
SMAP 3.1 17:47:43 10° SSE 17:52:22 82° ENE 17:57:03 10° NNW
Cosmos 1408 Rocket 3.9 17:48:21 10° SSW 17:52:48 73° W 17:57:14 10° N
Cosmos 1908 3.3 17:53:25 10° N 17:57:19 84° W 18:01:12 10° S
Cosmos 1844 3.7 17:53:08 10° NNW 17:58:53 67° ENE 18:04:39 10° SE
Cosmos 841 Rocket 3.5 17:55:51 10° SSW 18:01:06 76° ESE 18:06:23 10° NNE
Cosmos 44 Rocket 3.7 17:56:22 10° SSW 18:01:19 51° ESE 18:06:13 10° NE
Cosmos 1674 2.8 17:58:28 10° S 18:02:16 83° W 18:06:09 10° N
Cosmos 1340 Rocket 4.4 18:00:01 10° SE 18:02:23 16° E 18:04:46 10° NE
CENTAUR R/B 2.7 17:57:15 10° SW 18:03:20 77° NW 18:10:17 10° NE
IDEFIX/ARIANE 42P 3.1 18:01:32 10° S 18:06:42 65° WSW 18:11:56 10° NNW
SL-14 R/B 4.0 18:05:08 10° SSE 18:08:38 32° E 18:12:10 10° NNE
Lacrosse 5 3.5 18:04:49 10° WNW 18:08:52 23° NNW 18:12:56 10° NNE
COSMOS 2428 3.1 18:06:33 10° SSW 18:12:14 68° WNW 18:17:57 10° NNE
Cosmos 2237 Rocket 2.6 18:07:49 10° S 18:13:05 42° ESE 18:18:22 10° NE
Cosmos 1484 Rocket 2.8 18:09:39 10° SSE 18:13:32 63° ENE 18:17:29 10° N
Cosmos 1726 2.4 18:11:48 10° N 18:15:27 47° ENE 18:19:06 10° SSE
Cosmos 1743 Rocket 3.7 18:11:11 10° S 18:15:39 87° W 18:20:10 10° N
CZ-2C R/B 3.4 18:11:00 10° S 18:15:53 52° W 18:20:38 10° NNW
SL-16 R/B 3.5 18:14:43 10° SE 18:18:44 20° E 18:21:41 14° ENE
Cosmos 1328 Rocket 3.9 18:14:30 10° NNW 18:18:57 71° W 18:23:21 10° S
Cosmos 2151 3.2 18:15:03 10° SSE 18:19:03 44° E 18:23:03 10° NNE
Cosmos 1300 2.8 18:15:28 10° N 18:19:13 51° E 18:22:57 10° SSE
MSX 4.1 18:16:16 10° S 18:21:58 73° WSW 18:27:43 10° NNW
Cosmos 1515 Rocket 3.8 18:22:37 10° N 18:27:05 78° W 18:31:32 10° S
Cosmos 2297 4.3 18:22:03 10° N 18:27:13 34° NE 18:32:22 10° ESE
Aureole 2 Rocket 3.4 18:27:55 10° SSE 18:31:13 33° ESE 18:33:25 19° NE
SKYMED 2 3.5 18:27:05 10° NNE 18:31:25 72° E 18:35:46 10° S
Cosmos 1151 Rocket 2.9 18:28:04 10° N 18:32:22 82° E 18:36:39 10° S
Cosmos 1805 Rocket 4.3 18:31:00 10° SSE 18:34:55 31° E 18:38:22 13° NNE
BREEZE M DEB (TANK) 1.3 18:33:30 10° WNW 18:36:19 55° NNE 18:37:01 35° E
Lacrosse 5 rocket 1.4 18:34:11 10° NW 18:37:52 49° NE 18:40:18 20° ESE
Abrixas 3.5 18:36:26 10° SSW 18:39:02 29° SE 18:39:46 26° ESE
Cosmos 1844 Rocket 4.0 18:36:42 10° NW 18:42:01 43° WSW 18:47:17 10° S
Cosmos 1500 Rocket 4.0 18:38:01 10° SSW 18:42:17 62° W 18:46:37 10° N
Meteor 1-28 Rocket 3.0 18:40:30 10° NNE 18:44:13 69° E 18:47:54 10° S
CZ-4 R/B 4.3 18:41:41 10° SW 18:44:31 19° W 18:47:21 10° NW
Cosmos 1634 Rocket 4.3 18:39:10 10° NNW 18:45:19 70° W 18:51:25 10° S
Meteor 1-11 4.2 18:40:47 10° S 18:46:25 70° E 18:52:09 10° NNE
Cosmos 372 Rocket 3.9 18:49:05 10° NNW 18:54:12 90° SW 18:59:18 10° SSE
Sich 1 3.6 18:52:45 10° SSE 18:56:46 34° E 18:57:08 34° E
NOSS 0 Rocket 4.1 18:52:47 10° SSW 18:59:01 74° WNW 19:05:15 10° NNE
Cosmos 1980 3.9 18:54:58 10° SSW 19:00:39 74° WNW 19:06:12 11° NNE
Cosmos 1633 Rocket 3.8 18:57:19 10° SSE 19:00:37 32° ESE 19:00:37 32° ESE
Lacrosse 4 Rocket 3.5 18:59:36 10° N 19:00:22 13° NNE 19:00:22 13° NNE
FengYun 1-2 T 4.4 18:57:26 10° SE 19:02:44 47° ENE 19:08:02 10° N
Cosmos 2084 4.2 19:01:39 10° WSW 19:05:20 41° NW 19:07:18 23° N
Cosmos 540 Rocket 3.8 19:00:36 10° SSW 19:05:44 67° WNW 19:10:55 10° NNE
FENGYUN 3A 3.8 19:01:21 10° SE 19:06:27 47° ENE 19:11:35 10° N
SJ-6B 2.8 19:04:37 10° SSE 19:08:41 84° ENE 19:12:50 10° NNW
OTV 4 2.9 19:06:49 10° WSW 19:08:48 17° SSW 19:09:45 15° S
Meteor 2-10 4.2 19:03:47 10° NNW 19:08:51 72° W 19:14:02 10° S
USA 215 3.3 19:02:32 10° SE 19:09:07 84° SW 19:15:43 10° NW
ALOS 2.4 19:04:56 10° SE 19:09:24 48° ENE 19:13:55 10° N
Cosmos 44 3.7 19:05:15 10° SW 19:10:29 67° NW 19:13:37 23° NNE
Cosmos 2333 Rocket 3.0 19:10:01 10° SW 19:15:29 49° WNW 19:20:55 10° NNE
METEOR-M 4.2 19:11:10 10° S 19:16:31 78° WSW 19:21:54 10° NNW
Resurs 01 Rocket 1.6 19:17:34 54° E 19:17:42 54° ENE 19:22:04 10° N
ATLAS 5 CENTAUR R/B 4.3 19:16:07 10° N 19:18:04 12° NNE 19:18:04 12° NNE
Cosmos 1461 3.1 19:14:33 10° SSW 19:18:18 50° SE 19:18:18 50° SE
COSMO-SKYMED 1 4.1 19:15:24 10° N 19:19:21 35° WNW 19:23:16 10° SW
Cosmos 1703 3.2 19:16:35 10° S 19:20:28 82° W 19:21:52 39° N
Cosmos 1707 Rocket 3.4 19:18:05 10° N 19:22:27 89° E 19:26:47 10° S
Cosmos 2058 4.1 19:20:55 10° SSW 19:24:48 42° WNW 19:28:44 10° N
Cosmos 2219 Rocket 3.7 19:19:55 10° WSW 19:24:59 33° NW 19:30:03 10° N
SL-19 R/B 4.3 19:23:47 10° SSE 19:29:46 90° ENE 19:35:26 10° NNW
FREGAT/IRIS 4.4 19:27:28 10° S 19:32:17 19° NW 19:33:19 10° NNW
Cosmos 2278 Rocket 3.6 19:25:55 10° NW 19:31:08 39° WSW 19:36:20 10° S
Cosmos 1666 Rocket 3.4 19:29:18 10° S 19:33:38 87° W 19:34:05 71° N
Cosmos 1626 2.6 19:30:54 10° SSW 19:34:02 58° SW 19:34:02 58° SW
Spot 2 Rocket 3.3 19:32:51 10° SSE 19:37:55 85° ENE 19:42:59 10° NNW
Cosmos 1340 Rocket 4.2 19:34:53 10° SW 19:38:33 36° WNW 19:40:58 18° NNW
Cosmos 1538 Rocket 4.0 19:42:39 10° SSW 19:47:57 82° WNW 19:48:47 64° N
Cosmos 1356 Rocket 4.1 19:44:12 10° SSW 19:47:33 50° WSW 19:47:33 50° WSW
USA 229 DEB 3.8 19:43:17 10° SSW 19:49:29 52° SE 19:49:29 52° SE
USA 229 3.8 19:43:24 10° SSW 19:49:31 51° SE 19:49:31 51° SE
Lacrosse 5 3.9 19:50:18 10° NW 19:52:57 16° N 19:52:57 16° N
CENTAUR R/B 4.4 19:50:13 10° WNW 19:55:17 23° NNW 19:59:12 15° NNE
Cosmos 2237 Rocket 3.8 19:52:19 10° WSW 19:57:15 30° NW 20:01:05 15° N
Nadezhda 4 Rocket 4.3 19:51:26 10° SSW 19:57:37 66° W 20:03:55 10° N
Aureole 1 Rocket 3.9 19:56:59 10° SSW 20:01:09 63° S 20:01:09 63° S
Cosmos 2369 Rocket 4.2 19:57:08 10° N 19:58:25 16° N 19:58:25 16° N
SL-16 R/B 2.6 19:56:45 10° SW 20:02:20 59° WNW 20:03:37 47° NNW
BREEZE-M DEB (TANK) 4.5 19:53:38 10° W 20:08:38 52° N 20:08:56 52° N
Cosmos 1092 Rocket 4.3 20:09:41 10° SSW 20:15:58 66° W 20:20:03 23° N
Lacrosse 5 rocket 3.7 20:13:53 10° WNW 20:16:05 20° WSW 20:16:05 20° WSW
